���t,����,�O�C���x,�����t���O,�O�C���Ύ��x,�����t���O,���ԋ�C���x,�����t���O,���ԑ��Ύ��x,�����t���O,�g�C���^���N����,�����t���O,���֋�C���x,�����t���O,��g�[�����x,�����t���O
2003/11/1,0:00,16.9 ,0,69.0 ,0,21.9 ,0,58.3 ,0,21.0 ,0,21.0 ,0,21.1 ,0
2003/11/1,0:15,16.9 ,0,69.0 ,0,21.8 ,0,58.1 ,0,21.1 ,0,20.9 ,0,21.0 ,0
2003/11/1,0:30,17.0 ,0,69.0 ,0,21.8 ,0,58.0 ,0,21.2 ,0,20.9 ,0,20.9 ,0
2003/11/1,0:45,17.0 ,0,70.0 ,0,21.7 ,0,57.9 ,0,21.2 ,0,20.9 ,0,20.9 ,0
2003/11/1,1:00,16.9 ,0,70.0 ,0,21.6 ,0,57.9 ,0,21.3 ,0,20.9 ,0,20.8 ,0
2003/11/1,1:15,16.9 ,0,71.0 ,0,21.6 ,0,57.9 ,0,21.4 ,0,20.9 ,0,20.8 ,0
2003/11/1,1:30,16.9 ,0,72.0 ,0,21.5 ,0,57.9 ,0,21.4 ,0,20.8 ,0,20.7 ,0
2003/11/1,1:45,16.8 ,0,72.0 ,0,21.4 ,0,58.0 ,0,21.5 ,0,20.8 ,0,20.7 ,0
2003/11/1,2:00,16.8 ,0,72.0 ,0,21.4 ,0,58.1 ,0,21.5 ,0,20.8 ,0,20.6 ,0
2003/11/1,2:15,17.0 ,0,70.0 ,0,21.3 ,0,58.1 ,0,21.6 ,0,20.8 ,0,20.6 ,0
2003/11/1,2:30,17.0 ,0,69.0 ,0,21.3 ,0,58.2 ,0,21.6 ,0,20.7 ,0,20.5 ,0
2003/11/1,2:45,16.7 ,0,72.0 ,0,21.2 ,0,58.2 ,0,21.7 ,0,20.7 ,0,20.5 ,0
2003/11/1,3:00,16.4 ,0,73.0 ,0,21.2 ,0,58.2 ,0,21.7 ,0,20.7 ,0,20.4 ,0
2003/11/1,3:15,16.5 ,0,73.0 ,0,21.1 ,0,58.3 ,0,21.8 ,0,20.7 ,0,20.4 ,0
2003/11/1,3:30,16.9 ,0,71.0 ,0,21.1 ,0,58.3 ,0,21.8 ,0,20.6 ,0,20.3 ,0
2003/11/1,3:45,16.9 ,0,70.0 ,0,21.0 ,0,58.4 ,0,21.9 ,0,20.6 ,0,20.3 ,0
2003/11/1,4:00,16.5 ,0,72.0 ,0,21.0 ,0,58.5 ,0,21.9 ,0,20.6 ,0,20.3 ,0
2003/11/1,4:15,16.5 ,0,73.0 ,0,20.9 ,0,58.5 ,0,22.0 ,0,20.6 ,0,20.2 ,0
2003/11/1,4:30,16.5 ,0,72.0 ,0,20.9 ,0,58.6 ,0,22.0 ,0,20.5 ,0,20.2 ,0
2003/11/1,4:45,16.6 ,0,73.0 ,0,20.8 ,0,58.6 ,0,22.0 ,0,20.5 ,0,20.1 ,0
2003/11/1,5:00,16.8 ,0,72.0 ,0,20.8 ,0,58.7 ,0,22.1 ,0,20.5 ,0,20.1 ,0
2003/11/1,5:15,17.0 ,0,71.0 ,0,20.7 ,0,58.8 ,0,22.1 ,0,20.5 ,0,20.0 ,0
2003/11/1,5:30,16.8 ,0,72.0 ,0,20.7 ,0,58.8 ,0,22.1 ,0,20.4 ,0,20.0 ,0
2003/11/1,5:45,16.8 ,0,74.0 ,0,20.7 ,0,58.9 ,0,22.2 ,0,20.4 ,0,20.0 ,0
2003/11/1,6:00,16.8 ,0,74.0 ,0,20.6 ,0,59.0 ,0,22.2 ,0,20.4 ,0,19.9 ,0
2003/11/1,6:15,16.6 ,0,76.0 ,0,20.6 ,0,59.1 ,0,22.3 ,0,20.4 ,0,19.9 ,0
2003/11/1,6:30,16.6 ,0,77.0 ,0,20.6 ,0,59.3 ,0,19.5 ,0,20.4 ,0,19.9 ,0
2003/11/1,6:45,16.8 ,0,77.0 ,0,20.5 ,0,59.8 ,0,19.6 ,0,20.4 ,0,19.9 ,0
2003/11/1,7:00,16.8 ,0,77.0 ,0,20.5 ,0,59.2 ,0,20.3 ,0,20.4 ,0,19.9 ,0
2003/11/1,7:15,16.8 ,0,78.0 ,0,20.5 ,0,61.4 ,0,20.4 ,0,20.4 ,0,19.8 ,0
2003/11/1,7:30,17.2 ,0,76.0 ,0,20.6 ,0,62.7 ,0,20.5 ,0,20.4 ,0,19.8 ,0
2003/11/1,7:45,17.4 ,0,75.0 ,0,20.6 ,0,62.5 ,0,19.8 ,0,20.4 ,0,19.8 ,0
2003/11/1,8:00,18.4 ,0,74.0 ,0,20.6 ,0,62.3 ,0,19.9 ,0,20.4 ,0,19.9 ,0
2003/11/1,8:15,19.7 ,0,67.0 ,0,20.6 ,0,61.9 ,0,20.0 ,0,20.5 ,0,19.9 ,0
2003/11/1,8:30,19.8 ,0,68.0 ,0,20.7 ,0,61.8 ,0,20.1 ,0,20.5 ,0,19.9 ,0
2003/11/1,8:45,19.8 ,0,67.0 ,0,20.7 ,0,61.6 ,0,20.1 ,0,20.5 ,0,20.0 ,0
2003/11/1,9:00,20.0 ,0,66.0 ,0,20.7 ,0,61.5 ,0,20.2 ,0,20.5 ,0,20.0 ,0
2003/11/1,9:15,20.3 ,0,66.0 ,0,20.7 ,0,61.5 ,0,20.3 ,0,20.5 ,0,20.1 ,0
2003/11/1,9:30,20.9 ,0,64.0 ,0,20.7 ,0,61.4 ,0,20.4 ,0,20.5 ,0,20.2 ,0
2003/11/1,9:45,21.5 ,0,61.0 ,0,20.8 ,0,61.3 ,0,20.5 ,0,20.6 ,0,20.2 ,0
2003/11/1,10:00,22.2 ,0,58.0 ,0,20.8 ,0,61.1 ,0,20.6 ,0,20.6 ,0,20.3 ,0
2003/11/1,10:15,22.6 ,0,55.0 ,0,20.9 ,0,61.1 ,0,20.6 ,0,20.6 ,0,20.4 ,0
2003/11/1,10:30,23.1 ,0,52.0 ,0,20.9 ,0,61.1 ,0,20.7 ,0,20.6 ,0,20.5 ,0
2003/11/1,10:45,23.3 ,0,50.0 ,0,21.0 ,0,60.9 ,0,20.8 ,0,20.6 ,0,20.6 ,0
2003/11/1,11:00,23.5 ,0,50.0 ,0,21.1 ,0,60.8 ,0,20.9 ,0,20.7 ,0,20.7 ,0
2003/11/1,11:15,24.1 ,0,47.0 ,0,21.1 ,0,60.8 ,0,20.9 ,0,20.7 ,0,20.8 ,0
2003/11/1,11:30,25.2 ,0,45.0 ,0,21.3 ,0,60.6 ,0,21.0 ,0,20.7 ,0,20.9 ,0
2003/11/1,11:45,26.5 ,0,43.0 ,0,21.4 ,0,60.4 ,0,21.1 ,0,20.8 ,0,21.0 ,0
2003/11/1,12:00,25.1 ,0,44.0 ,0,21.6 ,0,60.3 ,0,21.1 ,0,20.9 ,0,21.2 ,0
2003/11/1,12:15,24.8 ,0,45.0 ,0,21.6 ,0,60.3 ,0,21.2 ,0,20.9 ,0,21.3 ,0
2003/11/1,12:30,23.6 ,0,50.0 ,0,21.7 ,0,60.3 ,0,19.6 ,0,21.0 ,0,21.5 ,0
2003/11/1,12:45,23.0 ,0,52.0 ,0,21.8 ,0,60.0 ,0,19.6 ,0,21.0 ,0,21.6 ,0
2003/11/1,13:00,23.3 ,0,52.0 ,0,21.8 ,0,59.9 ,0,19.7 ,0,21.1 ,0,21.7 ,0
2003/11/1,13:15,23.3 ,0,52.0 ,0,21.9 ,0,59.9 ,0,19.8 ,0,21.2 ,0,21.8 ,0
2003/11/1,13:30,23.4 ,0,50.0 ,0,22.0 ,0,59.8 ,0,19.8 ,0,21.2 ,0,21.9 ,0
2003/11/1,13:45,23.5 ,0,52.0 ,0,22.0 ,0,59.6 ,0,19.9 ,0,21.3 ,0,22.0 ,0
2003/11/1,14:00,23.4 ,0,53.0 ,0,22.1 ,0,59.5 ,0,20.0 ,0,21.3 ,0,22.1 ,0
2003/11/1,14:15,23.4 ,0,57.0 ,0,22.1 ,0,59.9 ,0,20.1 ,0,21.4 ,0,22.1 ,0
2003/11/1,14:30,23.2 ,0,59.0 ,0,22.2 ,0,60.2 ,0,20.2 ,0,21.5 ,0,22.2 ,0
2003/11/1,14:45,23.2 ,0,51.0 ,0,22.2 ,0,60.3 ,0,20.3 ,0,21.5 ,0,22.3 ,0
2003/11/1,15:00,23.1 ,0,60.0 ,0,22.3 ,0,60.4 ,0,20.4 ,0,21.6 ,0,22.3 ,0
2003/11/1,15:15,23.2 ,0,51.0 ,0,22.3 ,0,60.4 ,0,20.5 ,0,21.6 ,0,22.4 ,0
2003/11/1,15:30,23.2 ,0,57.0 ,0,22.4 ,0,60.7 ,0,20.6 ,0,21.7 ,0,22.5 ,0
2003/11/1,15:45,23.0 ,0,61.0 ,0,22.4 ,0,61.2 ,0,20.6 ,0,21.7 ,0,22.5 ,0
2003/11/1,16:00,22.8 ,0,61.0 ,0,22.5 ,0,61.1 ,0,20.7 ,0,21.8 ,0,22.5 ,0
2003/11/1,16:15,22.7 ,0,62.0 ,0,22.5 ,0,61.0 ,0,20.8 ,0,21.8 ,0,22.6 ,0
2003/11/1,16:30,22.6 ,0,62.0 ,0,22.5 ,0,61.1 ,0,20.9 ,0,21.8 ,0,22.6 ,0
2003/11/1,16:45,22.4 ,0,62.0 ,0,22.5 ,0,61.2 ,0,21.0 ,0,21.9 ,0,22.6 ,0
2003/11/1,17:00,22.3 ,0,63.0 ,0,22.6 ,0,61.1 ,0,21.1 ,0,21.9 ,0,22.6 ,0
2003/11/1,17:15,22.2 ,0,59.0 ,0,22.6 ,0,61.0 ,0,19.6 ,0,21.9 ,0,22.6 ,0
2003/11/1,17:30,22.2 ,0,60.0 ,0,22.7 ,0,61.1 ,0,19.7 ,0,22.0 ,0,22.6 ,0
2003/11/1,17:45,22.0 ,0,64.0 ,0,22.7 ,0,61.2 ,0,19.8 ,0,22.0 ,0,22.6 ,0
2003/11/1,18:00,21.7 ,0,68.0 ,0,22.8 ,0,61.0 ,0,19.9 ,0,22.0 ,0,22.6 ,0
2003/11/1,18:15,21.2 ,0,71.0 ,0,22.8 ,0,61.2 ,0,20.0 ,0,22.0 ,0,22.6 ,0
2003/11/1,18:30,20.8 ,0,77.0 ,0,22.9 ,0,61.4 ,0,20.1 ,0,22.0 ,0,22.6 ,0
2003/11/1,18:45,20.5 ,0,78.0 ,0,22.9 ,0,61.5 ,0,20.2 ,0,22.0 ,0,22.6 ,0
2003/11/1,19:00,20.3 ,0,80.0 ,0,22.9 ,0,61.6 ,0,20.3 ,0,22.0 ,0,22.5 ,0
2003/11/1,19:15,20.2 ,0,82.0 ,0,22.9 ,0,62.0 ,0,20.4 ,0,22.1 ,0,22.5 ,0
2003/11/1,19:30,20.1 ,0,83.0 ,0,22.9 ,0,61.7 ,0,20.5 ,0,22.1 ,0,22.5 ,0
2003/11/1,19:45,19.9 ,0,86.0 ,0,23.0 ,0,62.2 ,0,20.6 ,0,22.1 ,0,22.4 ,0
2003/11/1,20:00,19.8 ,0,87.0 ,0,23.0 ,0,62.1 ,0,20.7 ,0,22.1 ,0,22.4 ,0
2003/11/1,20:15,19.5 ,0,89.0 ,0,23.0 ,0,63.1 ,0,20.2 ,0,22.1 ,0,22.3 ,0
2003/11/1,20:30,19.4 ,0,90.0 ,0,23.2 ,0,74.2 ,0,20.2 ,0,22.1 ,0,22.3 ,0
2003/11/1,20:45,19.3 ,0,91.0 ,0,23.4 ,0,80.7 ,0,20.3 ,0,22.2 ,0,22.3 ,0
2003/11/1,21:00,19.1 ,0,92.0 ,0,23.5 ,0,78.9 ,0,20.4 ,0,22.2 ,0,22.2 ,0
2003/11/1,21:15,19.0 ,0,92.0 ,0,23.6 ,0,75.8 ,0,20.5 ,0,22.2 ,0,22.2 ,0
2003/11/1,21:30,18.9 ,0,93.0 ,0,23.7 ,0,73.8 ,0,20.6 ,0,22.2 ,0,22.1 ,0
2003/11/1,21:45,18.7 ,0,93.0 ,0,23.6 ,0,72.1 ,0,20.1 ,0,22.2 ,0,22.1 ,0
2003/11/1,22:00,18.5 ,0,94.0 ,0,23.6 ,0,70.3 ,0,20.2 ,0,22.2 ,0,22.1 ,0
2003/11/1,22:15,18.7 ,0,94.0 ,0,23.6 ,0,69.7 ,0,20.2 ,0,22.2 ,0,22.1 ,0
2003/11/1,22:30,18.6 ,0,93.0 ,0,23.6 ,0,69.0 ,0,20.4 ,0,22.3 ,0,22.0 ,0
2003/11/1,22:45,18.6 ,0,93.0 ,0,23.5 ,0,68.3 ,0,20.4 ,0,22.3 ,0,22.0 ,0
2003/11/1,23:00,18.7 ,0,93.0 ,0,23.5 ,0,66.9 ,0,19.6 ,0,22.4 ,0,22.0 ,0
2003/11/1,23:15,18.5 ,0,93.0 ,0,23.5 ,0,66.8 ,0,19.6 ,0,22.3 ,0,21.9 ,0
2003/11/1,23:30,18.5 ,0,94.0 ,0,23.5 ,0,66.5 ,0,19.7 ,0,22.3 ,0,21.9 ,0
2003/11/1,23:45,18.4 ,0,95.0 ,0,23.5 ,0,66.2 ,0,19.8 ,0,22.3 ,0,21.8 ,0
2003/11/2,0:00,18.6 ,0,95.0 ,0,23.5 ,0,65.9 ,0,19.9 ,0,22.3 ,0,21.8 ,0
2003/11/2,0:15,18.5 ,0,95.0 ,0,23.4 ,0,65.9 ,0,20.0 ,0,22.3 ,0,21.8 ,0
2003/11/2,0:30,18.6 ,0,94.0 ,0,23.4 ,0,65.7 ,0,20.1 ,0,22.3 ,0,21.7 ,0
2003/11/2,0:45,18.6 ,0,95.0 ,0,23.4 ,0,65.6 ,0,20.2 ,0,22.3 ,0,21.7 ,0
2003/11/2,1:00,18.7 ,0,94.0 ,0,23.4 ,0,65.4 ,0,20.3 ,0,22.3 ,0,21.7 ,0
2003/11/2,1:15,18.7 ,0,95.0 ,0,23.4 ,0,65.3 ,0,20.4 ,0,22.2 ,0,21.7 ,0
2003/11/2,1:30,18.7 ,0,96.0 ,0,23.4 ,0,65.3 ,0,20.5 ,0,22.2 ,0,21.7 ,0
2003/11/2,1:45,18.8 ,0,95.0 ,0,23.4 ,0,65.3 ,0,20.6 ,0,22.2 ,0,21.6 ,0
2003/11/2,2:00,18.8 ,0,94.0 ,0,23.4 ,0,65.3 ,0,20.7 ,0,22.2 ,0,21.6 ,0
2003/11/2,2:15,18.8 ,0,94.0 ,0,23.3 ,0,64.5 ,0,19.7 ,0,22.2 ,0,21.6 ,0
2003/11/2,2:30,18.7 ,0,95.0 ,0,23.3 ,0,64.3 ,0,19.7 ,0,22.2 ,0,21.6 ,0
2003/11/2,2:45,18.8 ,0,94.0 ,0,23.2 ,0,64.4 ,0,19.8 ,0,22.2 ,0,21.7 ,0
2003/11/2,3:00,18.7 ,0,94.0 ,0,23.1 ,0,64.5 ,0,19.9 ,0,22.2 ,0,21.7 ,0
2003/11/2,3:15,18.4 ,0,95.0 ,0,23.0 ,0,64.6 ,0,20.0 ,0,22.2 ,0,21.7 ,0
2003/11/2,3:30,18.3 ,0,96.0 ,0,23.0 ,0,64.6 ,0,20.1 ,0,22.2 ,0,21.6 ,0
2003/11/2,3:45,18.1 ,0,96.0 ,0,22.9 ,0,64.7 ,0,20.2 ,0,22.2 ,0,21.6 ,0
2003/11/2,4:00,18.2 ,0,98.0 ,0,22.8 ,0,64.7 ,0,20.3 ,0,22.2 ,0,21.6 ,0
2003/11/2,4:15,18.0 ,0,96.0 ,0,22.8 ,0,64.9 ,0,20.4 ,0,22.2 ,0,21.6 ,0
2003/11/2,4:30,17.9 ,0,96.0 ,0,22.7 ,0,64.9 ,0,20.5 ,0,22.2 ,0,21.6 ,0
2003/11/2,4:45,17.8 ,0,97.0 ,0,22.7 ,0,65.0 ,0,20.5 ,0,22.1 ,0,21.5 ,0
2003/11/2,5:00,17.7 ,0,98.0 ,0,22.6 ,0,65.2 ,0,20.6 ,0,22.1 ,0,21.5 ,0
2003/11/2,5:15,17.8 ,0,98.0 ,0,22.5 ,0,65.3 ,0,20.7 ,0,22.1 ,0,21.5 ,0
2003/11/2,5:30,17.9 ,0,98.0 ,0,22.5 ,0,65.4 ,0,20.8 ,0,22.1 ,0,21.5 ,0
2003/11/2,5:45,17.7 ,0,98.0 ,0,22.4 ,0,65.5 ,0,20.9 ,0,22.1 ,0,21.4 ,0
2003/11/2,6:00,17.8 ,0,98.0 ,0,22.4 ,0,65.6 ,0,21.0 ,0,22.0 ,0,21.4 ,0
2003/11/2,6:15,17.8 ,0,99.0 ,0,22.3 ,0,65.7 ,0,21.1 ,0,22.0 ,0,21.4 ,0
2003/11/2,6:30,17.6 ,0,98.0 ,0,22.3 ,0,65.8 ,0,21.1 ,0,22.0 ,0,21.3 ,0
2003/11/2,6:45,17.5 ,0,99.0 ,0,22.2 ,0,66.0 ,0,21.2 ,0,22.0 ,0,21.3 ,0
2003/11/2,7:00,17.4 ,0,98.0 ,0,22.2 ,0,65.7 ,0,21.3 ,0,22.0 ,0,21.3 ,0
2003/11/2,7:15,17.6 ,0,98.0 ,0,22.2 ,0,65.8 ,0,21.4 ,0,22.0 ,0,21.2 ,0
2003/11/2,7:30,18.3 ,0,96.0 ,0,22.1 ,0,65.2 ,0,20.3 ,0,21.9 ,0,21.2 ,0
2003/11/2,7:45,19.1 ,0,91.0 ,0,22.1 ,0,67.3 ,0,20.4 ,0,21.9 ,0,21.2 ,0
2003/11/2,8:00,19.4 ,0,87.0 ,0,22.1 ,0,67.6 ,0,20.3 ,0,22.0 ,0,21.3 ,0
2003/11/2,8:15,20.4 ,0,80.0 ,0,22.1 ,0,67.8 ,0,20.9 ,0,22.0 ,0,21.3 ,0
2003/11/2,8:30,21.4 ,0,75.0 ,0,22.1 ,0,67.6 ,0,21.0 ,0,22.0 ,0,21.4 ,0
2003/11/2,8:45,22.9 ,0,67.0 ,0,22.2 ,0,67.2 ,0,21.1 ,0,22.0 ,0,21.5 ,0
2003/11/2,9:00,23.4 ,0,65.0 ,0,22.4 ,0,66.7 ,0,21.2 ,0,22.1 ,0,21.6 ,0
2003/11/2,9:15,24.4 ,0,61.0 ,0,22.5 ,0,66.6 ,0,21.2 ,0,22.1 ,0,21.7 ,0
2003/11/2,9:30,26.2 ,0,57.0 ,0,22.7 ,0,66.2 ,0,21.3 ,0,22.1 ,0,21.9 ,0
2003/11/2,9:45,27.1 ,0,53.0 ,0,22.8 ,0,65.9 ,0,21.4 ,0,22.1 ,0,22.0 ,0
2003/11/2,10:00,28.1 ,0,51.0 ,0,22.9 ,0,65.7 ,0,21.5 ,0,22.2 ,0,22.2 ,0
2003/11/2,10:15,29.0 ,0,47.0 ,0,23.1 ,0,65.4 ,0,21.6 ,0,22.2 ,0,22.4 ,0
2003/11/2,10:30,29.7 ,0,45.0 ,0,23.3 ,0,65.2 ,0,21.6 ,0,22.3 ,0,22.6 ,0
2003/11/2,10:45,29.9 ,0,45.0 ,0,23.4 ,0,64.9 ,0,21.7 ,0,22.4 ,0,22.9 ,0
2003/11/2,11:00,30.3 ,0,44.0 ,0,23.6 ,0,64.7 ,0,21.8 ,0,22.4 ,0,23.1 ,0
2003/11/2,11:15,30.6 ,0,42.0 ,0,23.8 ,0,64.5 ,0,21.8 ,0,22.5 ,0,23.4 ,0
2003/11/2,11:30,31.0 ,0,40.0 ,0,24.0 ,0,64.3 ,0,20.0 ,0,22.6 ,0,23.6 ,0
2003/11/2,11:45,31.1 ,0,40.0 ,0,24.1 ,0,63.9 ,0,20.1 ,0,22.7 ,0,23.8 ,0
2003/11/2,12:00,31.7 ,0,38.0 ,0,24.3 ,0,64.0 ,0,20.2 ,0,22.7 ,0,24.0 ,0
2003/11/2,12:15,31.9 ,0,37.0 ,0,24.4 ,0,63.6 ,0,20.3 ,0,22.8 ,0,24.2 ,0
2003/11/2,12:30,32.0 ,0,38.0 ,0,24.6 ,0,63.1 ,0,20.4 ,0,22.9 ,0,24.4 ,0
2003/11/2,12:45,32.2 ,0,37.0 ,0,24.8 ,0,62.6 ,0,20.5 ,0,23.0 ,0,24.6 ,0
2003/11/2,13:00,32.7 ,0,37.0 ,0,24.9 ,0,62.3 ,0,20.5 ,0,23.1 ,0,24.8 ,0
2003/11/2,13:15,31.4 ,0,40.0 ,0,25.2 ,0,62.1 ,0,20.7 ,0,23.3 ,0,25.1 ,0
2003/11/2,13:30,30.6 ,0,42.0 ,0,25.5 ,0,62.2 ,0,20.8 ,0,23.4 ,0,25.3 ,0
2003/11/2,13:45,29.6 ,0,43.0 ,0,25.5 ,0,61.4 ,0,20.8 ,0,23.5 ,0,25.6 ,0
2003/11/2,14:00,29.3 ,0,45.0 ,0,25.4 ,0,60.8 ,0,20.0 ,0,23.6 ,0,25.7 ,0
2003/11/2,14:15,28.8 ,0,46.0 ,0,25.6 ,0,62.4 ,0,20.0 ,0,23.6 ,0,25.9 ,0
2003/11/2,14:30,28.2 ,0,47.0 ,0,25.5 ,0,61.1 ,0,19.7 ,0,23.7 ,0,26.0 ,0
2003/11/2,14:45,27.5 ,0,49.0 ,0,25.6 ,0,61.7 ,0,19.8 ,0,23.8 ,0,26.0 ,0
2003/11/2,15:00,26.9 ,0,53.0 ,0,25.6 ,0,61.6 ,0,19.9 ,0,23.8 ,0,26.1 ,0
2003/11/2,15:15,26.7 ,0,53.0 ,0,25.6 ,0,61.5 ,0,19.9 ,0,23.9 ,0,26.1 ,0
2003/11/2,15:30,26.3 ,0,55.0 ,0,25.6 ,0,61.5 ,0,20.0 ,0,23.9 ,0,26.1 ,0
2003/11/2,15:45,25.9 ,0,56.0 ,0,25.6 ,0,61.6 ,0,20.2 ,0,23.9 ,0,26.1 ,0
2003/11/2,16:00,25.4 ,0,58.0 ,0,25.5 ,0,61.6 ,0,20.3 ,0,24.0 ,0,26.1 ,0
2003/11/2,16:15,25.0 ,0,59.0 ,0,25.5 ,0,61.8 ,0,20.4 ,0,24.0 ,0,26.1 ,0
2003/11/2,16:30,24.7 ,0,60.0 ,0,25.4 ,0,61.8 ,0,20.5 ,0,24.0 ,0,26.1 ,0
2003/11/2,16:45,24.5 ,0,61.0 ,0,25.4 ,0,61.9 ,0,20.6 ,0,24.0 ,0,26.0 ,0
2003/11/2,17:00,24.2 ,0,63.0 ,0,25.3 ,0,62.0 ,0,20.7 ,0,24.0 ,0,26.0 ,0
2003/11/2,17:15,23.9 ,0,64.0 ,0,25.3 ,0,62.0 ,0,20.8 ,0,24.0 ,0,25.9 ,0
2003/11/2,17:30,23.6 ,0,66.0 ,0,25.2 ,0,62.2 ,0,20.9 ,0,24.0 ,0,25.9 ,0
2003/11/2,17:45,23.5 ,0,66.0 ,0,25.2 ,0,62.3 ,0,21.0 ,0,24.0 ,0,25.8 ,0
2003/11/2,18:00,23.4 ,0,66.0 ,0,25.1 ,0,62.4 ,0,21.1 ,0,24.0 ,0,25.7 ,0
2003/11/2,18:15,23.3 ,0,68.0 ,0,25.0 ,0,62.4 ,0,21.2 ,0,24.0 ,0,25.7 ,0
2003/11/2,18:30,23.0 ,0,69.0 ,0,25.0 ,0,62.6 ,0,21.3 ,0,24.0 ,0,25.6 ,0
2003/11/2,18:45,22.8 ,0,70.0 ,0,24.9 ,0,62.7 ,0,21.4 ,0,24.0 ,0,25.5 ,0
2003/11/2,19:00,22.6 ,0,72.0 ,0,24.8 ,0,62.8 ,0,21.5 ,0,24.0 ,0,25.4 ,0
2003/11/2,19:15,22.6 ,0,72.0 ,0,24.8 ,0,63.0 ,0,21.6 ,0,24.0 ,0,25.3 ,0
2003/11/2,19:30,22.5 ,0,73.0 ,0,24.7 ,0,63.2 ,0,21.6 ,0,24.0 ,0,25.3 ,0
2003/11/2,19:45,22.3 ,0,74.0 ,0,24.7 ,0,63.7 ,0,20.2 ,0,24.0 ,0,25.2 ,0
2003/11/2,20:00,22.1 ,0,74.0 ,0,24.7 ,0,63.9 ,0,20.3 ,0,24.1 ,0,25.1 ,0
2003/11/2,20:15,22.0 ,0,74.0 ,0,24.8 ,0,64.4 ,0,20.4 ,0,24.2 ,0,25.0 ,0
2003/11/2,20:30,21.9 ,0,74.0 ,0,24.8 ,0,64.3 ,0,20.5 ,0,24.3 ,0,25.0 ,0
2003/11/2,20:45,21.6 ,0,76.0 ,0,24.9 ,0,64.3 ,0,20.6 ,0,24.3 ,0,24.9 ,0
2003/11/2,21:00,21.5 ,0,77.0 ,0,24.8 ,0,64.4 ,0,20.7 ,0,24.4 ,0,24.9 ,0
2003/11/2,21:15,21.5 ,0,77.0 ,0,24.8 ,0,64.4 ,0,20.8 ,0,24.4 ,0,24.8 ,0
2003/11/2,21:30,21.4 ,0,77.0 ,0,24.8 ,0,64.3 ,0,20.9 ,0,24.4 ,0,24.7 ,0
2003/11/2,21:45,21.4 ,0,78.0 ,0,24.8 ,0,64.4 ,0,21.0 ,0,24.4 ,0,24.7 ,0
2003/11/2,22:00,21.5 ,0,78.0 ,0,24.8 ,0,64.2 ,0,21.1 ,0,24.4 ,0,24.6 ,0
2003/11/2,22:15,21.4 ,0,78.0 ,0,24.8 ,0,64.1 ,0,21.2 ,0,24.4 ,0,24.6 ,0
2003/11/2,22:30,21.3 ,0,78.0 ,0,24.8 ,0,64.1 ,0,21.3 ,0,24.4 ,0,24.5 ,0
2003/11/2,22:45,21.1 ,0,80.0 ,0,24.9 ,0,64.0 ,0,21.4 ,0,24.5 ,0,24.5 ,0
2003/11/2,23:00,20.9 ,0,80.0 ,0,24.8 ,0,64.0 ,0,21.5 ,0,24.5 ,0,24.4 ,0
2003/11/2,23:15,20.8 ,0,81.0 ,0,24.8 ,0,63.9 ,0,20.3 ,0,24.5 ,0,24.4 ,0
2003/11/2,23:30,20.9 ,0,81.0 ,0,24.7 ,0,63.9 ,0,20.4 ,0,24.5 ,0,24.3 ,0
2003/11/2,23:45,20.9 ,0,82.0 ,0,24.7 ,0,63.9 ,0,20.5 ,0,24.5 ,0,24.3 ,0
2003/11/3,0:00,20.8 ,0,84.0 ,0,24.6 ,0,64.0 ,0,20.6 ,0,24.5 ,0,24.2 ,0
2003/11/3,0:15,20.5 ,0,88.0 ,0,24.6 ,0,64.0 ,0,20.7 ,0,24.5 ,0,24.2 ,0
2003/11/3,0:30,20.5 ,0,89.0 ,0,24.5 ,0,64.1 ,0,20.8 ,0,24.5 ,0,24.2 ,0
2003/11/3,0:45,19.8 ,0,87.0 ,0,24.5 ,0,64.2 ,0,20.9 ,0,24.4 ,0,24.1 ,0
2003/11/3,1:00,19.8 ,0,86.0 ,0,24.5 ,0,64.3 ,0,21.0 ,0,24.3 ,0,24.0 ,0
2003/11/3,1:15,19.8 ,0,84.0 ,0,24.5 ,0,64.4 ,0,21.1 ,0,24.2 ,0,24.0 ,0
2003/11/3,1:30,19.7 ,0,85.0 ,0,24.5 ,0,64.6 ,0,21.2 ,0,24.1 ,0,23.9 ,0
2003/11/3,1:45,19.4 ,0,87.0 ,0,24.5 ,0,64.6 ,0,21.3 ,0,24.1 ,0,23.9 ,0
2003/11/3,2:00,19.5 ,0,84.0 ,0,24.4 ,0,64.5 ,0,21.4 ,0,24.0 ,0,23.8 ,0
2003/11/3,2:15,19.3 ,0,87.0 ,0,24.4 ,0,64.6 ,0,21.5 ,0,24.0 ,0,23.8 ,0
2003/11/3,2:30,19.3 ,0,87.0 ,0,24.4 ,0,64.6 ,0,21.5 ,0,23.9 ,0,23.7 ,0
2003/11/3,2:45,19.4 ,0,86.0 ,0,24.4 ,0,64.6 ,0,21.6 ,0,23.9 ,0,23.7 ,0
2003/11/3,3:00,19.2 ,0,84.0 ,0,24.4 ,0,64.5 ,0,21.7 ,0,23.9 ,0,23.6 ,0
2003/11/3,3:15,19.1 ,0,84.0 ,0,24.4 ,0,64.5 ,0,21.8 ,0,23.8 ,0,23.6 ,0
2003/11/3,3:30,19.0 ,0,84.0 ,0,24.4 ,0,64.6 ,0,21.9 ,0,23.8 ,0,23.5 ,0
2003/11/3,3:45,18.4 ,0,89.0 ,0,24.3 ,0,64.5 ,0,21.9 ,0,23.8 ,0,23.5 ,0
2003/11/3,4:00,18.3 ,0,93.0 ,0,24.3 ,0,64.4 ,0,22.0 ,0,23.7 ,0,23.4 ,0
2003/11/3,4:15,18.2 ,0,94.0 ,0,24.3 ,0,64.4 ,0,19.8 ,0,23.7 ,0,23.4 ,0
2003/11/3,4:30,18.0 ,0,94.0 ,0,24.2 ,0,64.5 ,0,19.9 ,0,23.7 ,0,23.3 ,0
2003/11/3,4:45,17.9 ,0,97.0 ,0,24.2 ,0,64.6 ,0,20.0 ,0,23.7 ,0,23.3 ,0
2003/11/3,5:00,17.9 ,0,96.0 ,0,24.1 ,0,64.7 ,0,20.1 ,0,23.6 ,0,23.2 ,0
2003/11/3,5:15,18.0 ,0,96.0 ,0,24.0 ,0,64.7 ,0,20.2 ,0,23.6 ,0,23.2 ,0
2003/11/3,5:30,18.0 ,0,96.0 ,0,24.0 ,0,64.9 ,0,20.3 ,0,23.6 ,0,23.2 ,0
2003/11/3,5:45,18.0 ,0,96.0 ,0,23.9 ,0,64.9 ,0,20.4 ,0,23.5 ,0,23.1 ,0
2003/11/3,6:00,18.0 ,0,95.0 ,0,23.8 ,0,65.0 ,0,20.5 ,0,23.5 ,0,23.1 ,0
2003/11/3,6:15,18.0 ,0,95.0 ,0,23.8 ,0,65.1 ,0,20.6 ,0,23.5 ,0,23.0 ,0
2003/11/3,6:30,17.9 ,0,96.0 ,0,23.7 ,0,65.3 ,0,20.7 ,0,23.4 ,0,23.0 ,0
2003/11/3,6:45,17.9 ,0,96.0 ,0,23.6 ,0,65.4 ,0,20.8 ,0,23.4 ,0,22.9 ,0
2003/11/3,7:00,17.9 ,0,95.0 ,0,23.6 ,0,65.6 ,0,20.9 ,0,23.4 ,0,22.9 ,0
2003/11/3,7:15,18.2 ,0,93.0 ,0,23.5 ,0,65.6 ,0,21.0 ,0,23.3 ,0,22.9 ,0
2003/11/3,7:30,18.3 ,0,92.0 ,0,23.5 ,0,65.7 ,0,21.1 ,0,23.3 ,0,22.8 ,0
2003/11/3,7:45,18.3 ,0,93.0 ,0,23.4 ,0,65.7 ,0,19.8 ,0,23.3 ,0,22.8 ,0
2003/11/3,8:00,18.5 ,0,93.0 ,0,23.4 ,0,65.8 ,0,20.6 ,0,23.3 ,0,22.8 ,0
2003/11/3,8:15,18.5 ,0,93.0 ,0,23.3 ,0,66.3 ,0,20.6 ,0,23.3 ,0,22.7 ,0
2003/11/3,8:30,18.7 ,0,92.0 ,0,23.4 ,0,66.4 ,0,20.7 ,0,23.3 ,0,22.7 ,0
2003/11/3,8:45,18.8 ,0,91.0 ,0,23.4 ,0,66.6 ,0,20.8 ,0,23.3 ,0,22.7 ,0
2003/11/3,9:00,19.1 ,0,90.0 ,0,23.4 ,0,66.6 ,0,20.9 ,0,23.2 ,0,22.7 ,0
2003/11/3,9:15,19.5 ,0,89.0 ,0,23.4 ,0,66.6 ,0,19.8 ,0,23.2 ,0,22.7 ,0
2003/11/3,9:30,19.8 ,0,87.0 ,0,23.4 ,0,66.7 ,0,19.9 ,0,23.2 ,0,22.7 ,0
2003/11/3,9:45,20.0 ,0,87.0 ,0,23.4 ,0,66.6 ,0,20.0 ,0,23.2 ,0,22.7 ,0
2003/11/3,10:00,20.1 ,0,85.0 ,0,23.5 ,0,66.9 ,0,20.1 ,0,23.2 ,0,22.7 ,0
2003/11/3,10:15,20.4 ,0,84.0 ,0,23.5 ,0,66.9 ,0,20.0 ,0,23.2 ,0,22.7 ,0
2003/11/3,10:30,20.4 ,0,85.0 ,0,23.5 ,0,66.7 ,0,19.8 ,0,23.1 ,0,22.8 ,0
2003/11/3,10:45,20.7 ,0,84.0 ,0,23.5 ,0,66.8 ,0,19.8 ,0,23.2 ,0,22.8 ,0
2003/11/3,11:00,20.8 ,0,83.0 ,0,23.5 ,0,66.6 ,0,19.9 ,0,23.1 ,0,22.8 ,0
2003/11/3,11:15,21.1 ,0,81.0 ,0,23.5 ,0,66.5 ,0,20.0 ,0,23.1 ,0,22.9 ,0
2003/11/3,11:30,21.4 ,0,77.0 ,0,23.5 ,0,66.6 ,0,20.1 ,0,23.1 ,0,22.9 ,0
2003/11/3,11:45,21.6 ,0,77.0 ,0,23.5 ,0,66.5 ,0,20.2 ,0,23.1 ,0,22.9 ,0
2003/11/3,12:00,21.6 ,0,77.0 ,0,23.5 ,0,66.3 ,0,20.3 ,0,23.1 ,0,23.0 ,0
2003/11/3,12:15,21.6 ,0,77.0 ,0,23.5 ,0,66.5 ,0,20.4 ,0,23.1 ,0,23.0 ,0
2003/11/3,12:30,21.6 ,0,77.0 ,0,23.5 ,0,66.5 ,0,20.5 ,0,23.1 ,0,23.1 ,0
2003/11/3,12:45,21.6 ,0,74.0 ,0,23.5 ,0,66.5 ,0,20.6 ,0,23.1 ,0,23.1 ,0
2003/11/3,13:00,21.6 ,0,73.0 ,0,23.5 ,0,66.6 ,0,20.7 ,0,23.1 ,0,23.1 ,0
2003/11/3,13:15,21.7 ,0,72.0 ,0,23.5 ,0,66.6 ,0,20.8 ,0,23.1 ,0,23.2 ,0
2003/11/3,13:30,21.7 ,0,71.0 ,0,23.5 ,0,66.6 ,0,20.9 ,0,23.1 ,0,23.2 ,0
2003/11/3,13:45,22.0 ,0,71.0 ,0,23.5 ,0,66.5 ,0,21.0 ,0,23.1 ,0,23.2 ,0
2003/11/3,14:00,22.0 ,0,69.0 ,0,23.6 ,0,66.3 ,0,21.1 ,0,23.1 ,0,23.2 ,0
2003/11/3,14:15,22.1 ,0,62.0 ,0,23.6 ,0,66.2 ,0,21.2 ,0,23.1 ,0,23.3 ,0
2003/11/3,14:30,22.3 ,0,60.0 ,0,23.6 ,0,66.1 ,0,21.3 ,0,23.1 ,0,23.3 ,0
2003/11/3,14:45,22.4 ,0,62.0 ,0,23.6 ,0,66.0 ,0,21.4 ,0,23.1 ,0,23.3 ,0
2003/11/3,15:00,22.3 ,0,63.0 ,0,23.6 ,0,66.0 ,0,21.5 ,0,23.1 ,0,23.4 ,0
2003/11/3,15:15,22.3 ,0,63.0 ,0,23.6 ,0,65.7 ,0,21.5 ,0,23.1 ,0,23.4 ,0
2003/11/3,15:30,22.2 ,0,65.0 ,0,23.6 ,0,65.6 ,0,21.6 ,0,23.1 ,0,23.4 ,0
2003/11/3,15:45,22.1 ,0,65.0 ,0,23.6 ,0,65.5 ,0,21.7 ,0,23.1 ,0,23.4 ,0
2003/11/3,16:00,22.0 ,0,66.0 ,0,23.6 ,0,65.6 ,0,20.5 ,0,23.1 ,0,23.5 ,0
2003/11/3,16:15,22.0 ,0,65.0 ,0,23.7 ,0,65.6 ,0,20.6 ,0,23.1 ,0,23.5 ,0
2003/11/3,16:30,21.8 ,0,67.0 ,0,23.7 ,0,65.6 ,0,20.7 ,0,23.1 ,0,23.5 ,0
2003/11/3,16:45,21.6 ,0,69.0 ,0,23.7 ,0,65.5 ,0,20.8 ,0,23.2 ,0,23.5 ,0
2003/11/3,17:00,21.2 ,0,70.0 ,0,23.7 ,0,65.2 ,0,20.9 ,0,23.2 ,0,23.5 ,0
2003/11/3,17:15,21.0 ,0,72.0 ,0,23.6 ,0,65.4 ,0,21.0 ,0,23.2 ,0,23.5 ,0
2003/11/3,17:30,20.9 ,0,72.0 ,0,23.6 ,0,65.5 ,0,21.1 ,0,23.2 ,0,23.5 ,0
2003/11/3,17:45,20.7 ,0,72.0 ,0,23.6 ,0,65.7 ,0,20.2 ,0,23.2 ,0,23.5 ,0
2003/11/3,18:00,20.7 ,0,75.0 ,0,23.6 ,0,65.7 ,0,20.2 ,0,23.2 ,0,23.5 ,0
2003/11/3,18:15,20.5 ,0,77.0 ,0,23.6 ,0,65.5 ,0,20.4 ,0,23.2 ,0,23.4 ,0
2003/11/3,18:30,20.3 ,0,78.0 ,0,23.6 ,0,65.5 ,0,20.5 ,0,23.2 ,0,23.4 ,0
2003/11/3,18:45,20.2 ,0,78.0 ,0,23.6 ,0,65.6 ,0,20.6 ,0,23.2 ,0,23.4 ,0
2003/11/3,19:00,20.1 ,0,78.0 ,0,23.6 ,0,65.6 ,0,20.7 ,0,23.2 ,0,23.4 ,0
2003/11/3,19:15,20.0 ,0,78.0 ,0,23.6 ,0,65.6 ,0,20.7 ,0,23.2 ,0,23.3 ,0
2003/11/3,19:30,19.9 ,0,80.0 ,0,23.6 ,0,65.7 ,0,20.8 ,0,23.2 ,0,23.3 ,0
2003/11/3,19:45,19.9 ,0,81.0 ,0,23.6 ,0,65.8 ,0,20.9 ,0,23.2 ,0,23.3 ,0
2003/11/3,20:00,19.8 ,0,81.0 ,0,23.6 ,0,65.8 ,0,21.0 ,0,23.2 ,0,23.2 ,0
2003/11/3,20:15,19.6 ,0,79.0 ,0,23.6 ,0,66.4 ,0,21.1 ,0,23.2 ,0,23.2 ,0
2003/11/3,20:30,19.8 ,0,78.0 ,0,23.6 ,0,66.8 ,0,21.2 ,0,23.2 ,0,23.2 ,0
2003/11/3,20:45,19.7 ,0,78.0 ,0,23.6 ,0,66.3 ,0,20.2 ,0,23.2 ,0,23.2 ,0
2003/11/3,21:00,19.7 ,0,78.0 ,0,23.6 ,0,66.1 ,0,20.2 ,0,23.2 ,0,23.1 ,0
2003/11/3,21:15,19.8 ,0,78.0 ,0,23.6 ,0,65.9 ,0,20.3 ,0,23.2 ,0,23.1 ,0
2003/11/3,21:30,19.8 ,0,77.0 ,0,23.5 ,0,65.8 ,0,20.5 ,0,23.2 ,0,23.0 ,0
2003/11/3,21:45,19.5 ,0,76.0 ,0,23.5 ,0,65.7 ,0,20.5 ,0,23.2 ,0,23.0 ,0
2003/11/3,22:00,19.6 ,0,73.0 ,0,23.5 ,0,65.7 ,0,20.6 ,0,23.2 ,0,23.0 ,0
2003/11/3,22:15,19.4 ,0,70.0 ,0,23.5 ,0,65.5 ,0,19.9 ,0,23.2 ,0,22.9 ,0
2003/11/3,22:30,19.3 ,0,67.0 ,0,23.4 ,0,65.3 ,0,20.0 ,0,23.2 ,0,22.9 ,0
2003/11/3,22:45,19.1 ,0,66.0 ,0,23.4 ,0,65.0 ,0,20.1 ,0,23.2 ,0,22.9 ,0
2003/11/3,23:00,19.0 ,0,65.0 ,0,23.4 ,0,64.7 ,0,20.2 ,0,23.1 ,0,22.8 ,0
2003/11/3,23:15,18.7 ,0,66.0 ,0,23.3 ,0,64.4 ,0,20.3 ,0,23.1 ,0,22.8 ,0
2003/11/3,23:30,18.7 ,0,66.0 ,0,23.3 ,0,64.0 ,0,20.4 ,0,23.1 ,0,22.8 ,0
2003/11/3,23:45,18.5 ,0,67.0 ,0,23.3 ,0,63.6 ,0,20.5 ,0,23.1 ,0,22.7 ,0
2003/11/4,0:00,18.6 ,0,68.0 ,0,23.2 ,0,63.4 ,0,20.6 ,0,23.0 ,0,22.7 ,0
2003/11/4,0:15,18.5 ,0,67.0 ,0,23.2 ,0,63.4 ,0,20.7 ,0,23.0 ,0,22.6 ,0
2003/11/4,0:30,18.2 ,0,68.0 ,0,23.1 ,0,63.1 ,0,20.8 ,0,22.9 ,0,22.5 ,0
2003/11/4,0:45,18.3 ,0,68.0 ,0,23.0 ,0,62.7 ,0,20.9 ,0,22.9 ,0,22.5 ,0
2003/11/4,1:00,18.3 ,0,71.0 ,0,23.0 ,0,62.6 ,0,21.0 ,0,22.9 ,0,22.4 ,0
2003/11/4,1:15,18.6 ,0,75.0 ,0,22.9 ,0,62.5 ,0,21.1 ,0,22.8 ,0,22.4 ,0
2003/11/4,1:30,18.7 ,0,75.0 ,0,22.8 ,0,62.6 ,0,21.1 ,0,22.8 ,0,22.3 ,0
2003/11/4,1:45,18.7 ,0,75.0 ,0,22.8 ,0,62.8 ,0,21.2 ,0,22.7 ,0,22.3 ,0
2003/11/4,2:00,18.8 ,0,75.0 ,0,22.7 ,0,63.0 ,0,21.3 ,0,22.7 ,0,22.3 ,0
2003/11/4,2:15,18.8 ,0,73.0 ,0,22.7 ,0,63.1 ,0,21.4 ,0,22.7 ,0,22.2 ,0
2003/11/4,2:30,18.6 ,0,72.0 ,0,22.6 ,0,63.4 ,0,21.5 ,0,22.6 ,0,22.2 ,0
2003/11/4,2:45,18.6 ,0,68.0 ,0,22.6 ,0,63.5 ,0,21.6 ,0,22.6 ,0,22.2 ,0
2003/11/4,3:00,18.5 ,0,66.0 ,0,22.5 ,0,63.5 ,0,21.6 ,0,22.6 ,0,22.1 ,0
2003/11/4,3:15,18.6 ,0,65.0 ,0,22.5 ,0,63.5 ,0,21.7 ,0,22.5 ,0,22.1 ,0
2003/11/4,3:30,18.5 ,0,65.0 ,0,22.5 ,0,63.5 ,0,21.8 ,0,22.5 ,0,22.1 ,0
2003/11/4,3:45,18.5 ,0,69.0 ,0,22.4 ,0,63.4 ,0,21.9 ,0,22.5 ,0,22.1 ,0
2003/11/4,4:00,18.3 ,0,70.0 ,0,22.4 ,0,63.4 ,0,21.9 ,0,22.4 ,0,22.0 ,0
2003/11/4,4:15,18.4 ,0,70.0 ,0,22.3 ,0,63.4 ,0,22.0 ,0,22.4 ,0,22.0 ,0
2003/11/4,4:30,18.4 ,0,71.0 ,0,22.3 ,0,63.4 ,0,22.1 ,0,22.4 ,0,22.0 ,0
2003/11/4,4:45,18.2 ,0,72.0 ,0,22.2 ,0,63.5 ,0,22.1 ,0,22.3 ,0,21.9 ,0
2003/11/4,5:00,18.0 ,0,72.0 ,0,22.2 ,0,63.5 ,0,22.2 ,0,22.3 ,0,21.9 ,0
2003/11/4,5:15,18.0 ,0,72.0 ,0,22.2 ,0,63.6 ,0,22.2 ,0,22.3 ,0,21.9 ,0
2003/11/4,5:30,17.8 ,0,73.0 ,0,22.1 ,0,63.6 ,0,22.3 ,0,22.2 ,0,21.8 ,0
2003/11/4,5:45,17.7 ,0,74.0 ,0,22.1 ,0,63.7 ,0,22.4 ,0,22.2 ,0,21.8 ,0
2003/11/4,6:00,17.6 ,0,74.0 ,0,22.0 ,0,63.7 ,0,22.4 ,0,22.2 ,0,21.8 ,0
2003/11/4,6:15,17.4 ,0,74.0 ,0,22.0 ,0,63.7 ,0,22.5 ,0,22.1 ,0,21.7 ,0
2003/11/4,6:30,17.4 ,0,75.0 ,0,21.9 ,0,63.8 ,0,22.5 ,0,22.1 ,0,21.7 ,0
2003/11/4,6:45,17.2 ,0,76.0 ,0,21.9 ,0,63.8 ,0,22.6 ,0,22.1 ,0,21.6 ,0
2003/11/4,7:00,17.0 ,0,77.0 ,0,21.8 ,0,63.9 ,0,22.6 ,0,22.0 ,0,21.6 ,0
2003/11/4,7:15,16.4 ,0,79.0 ,0,21.8 ,0,63.9 ,0,22.7 ,0,22.0 ,0,21.5 ,0
2003/11/4,7:30,16.5 ,0,81.0 ,0,21.8 ,0,64.0 ,0,22.7 ,0,22.0 ,0,21.5 ,0
2003/11/4,7:45,18.7 ,0,73.0 ,0,21.7 ,0,63.9 ,0,22.8 ,0,21.9 ,0,21.4 ,0
2003/11/4,8:00,20.8 ,0,63.0 ,0,21.7 ,0,64.3 ,0,20.5 ,0,21.9 ,0,21.4 ,0
2003/11/4,8:15,21.7 ,0,59.0 ,0,21.7 ,0,64.2 ,0,20.5 ,0,21.9 ,0,21.4 ,0
2003/11/4,8:30,22.5 ,0,56.0 ,0,21.6 ,0,64.4 ,0,20.6 ,0,21.9 ,0,21.4 ,0
2003/11/4,8:45,25.3 ,0,48.0 ,0,21.7 ,0,64.4 ,0,20.7 ,0,21.9 ,0,21.5 ,0
2003/11/4,9:00,25.9 ,0,45.0 ,0,21.8 ,0,64.5 ,0,20.8 ,0,21.9 ,0,21.5 ,0
2003/11/4,9:15,25.0 ,0,45.0 ,0,21.8 ,0,64.3 ,0,20.9 ,0,21.9 ,0,21.6 ,0
2003/11/4,9:30,26.4 ,0,43.0 ,0,21.9 ,0,64.2 ,0,21.0 ,0,21.9 ,0,21.7 ,0
2003/11/4,9:45,26.9 ,0,41.0 ,0,22.0 ,0,64.0 ,0,21.0 ,0,21.9 ,0,21.8 ,0